Location: Holcomb Observatory
(44.4922°N, 73.1654°W)
Time: 20:09:14
(UTC-04:00)

Cosmos 2360 Rocket - Visible Passes

Search period start: 29 August 2014 00:00
Search period end: 08 September 2014 00:00
Orbit: 833 x 847 km, 71.0° (Epoch: 28 August)

Date Brightness Start Highest point End Pass type
(mag) Time Alt. Az. Time Alt. Az. Time Alt. Az.
29 Aug 4.7 04:08:51 10° SE 04:12:17 17° E 04:15:43 10° ENE visible
30 Aug 4.7 03:53:33 10° SE 03:56:45 16° E 03:59:58 10° ENE visible
30 Aug 2.2 05:34:23 10° SSW 05:40:00 78° WNW 05:45:41 10° NNE visible
31 Aug 4.7 03:38:16 10° SE 03:41:13 15° E 03:44:10 10° ENE visible
31 Aug 2.2 05:18:48 10° SSW 05:24:25 83° WNW 05:30:07 10° NNE visible
01 Sep 4.7 03:23:02 10° SE 03:25:41 14° E 03:28:21 10° ENE visible
01 Sep 2.2 05:03:13 10° SSW 05:08:51 87° WNW 05:14:32 10° NNE visible
02 Sep 4.7 03:07:51 10° ESE 03:10:10 13° E 03:12:29 10° ENE visible
02 Sep 2.2 04:48:34 15° SSW 04:53:16 88° ESE 04:58:57 10° NNE visible
03 Sep 4.7 02:52:45 10° ESE 02:54:38 12° E 02:56:32 10° ENE visible
03 Sep 2.2 04:33:57 22° SSW 04:37:41 83° ESE 04:43:22 10° NNE visible
04 Sep 4.7 02:37:47 10° ESE 02:39:07 11° E 02:40:27 10° E visible
04 Sep 2.2 04:19:16 30° SSW 04:22:07 79° ESE 04:27:47 10° NNE visible
05 Sep 2.3 04:04:31 41° S 04:06:33 74° ESE 04:12:12 10° NNE visible
05 Sep 3.7 05:47:00 10° W 05:51:11 21° NW 05:55:24 10° N visible
06 Sep 2.3 03:49:43 53° S 03:50:58 70° ESE 03:56:37 10° NNE visible
06 Sep 3.6 05:31:31 11° W 05:35:33 22° NW 05:39:53 10° N visible
07 Sep 2.3 03:34:52 62° SE 03:35:24 66° ESE 03:41:01 10° NNE visible
07 Sep 3.6 05:16:40 14° W 05:19:55 23° NW 05:24:22 10° N visible
